Toledo Metcalf, OH

1:00 AM EDT on May 26, 2017 (GMT -0400)
Metcalf

Weather History for KTDZ - December, 2012

Change the Weather History Date:

Sunday, December 30, 2012

  Actual Average (KTOL) Record (KTOL)
Temperature  
Mean Temperature 23 °F -  
Max Temperature 28 °F 31 °F 60 °F (1936)
Min Temperature 18 °F 17 °F -12 °F (1983)
Degree Days  
Heating Degree Days 42    
Moisture  
Dew Point 19 °F    
Average Humidity 84    
Maximum Humidity 93    
Minimum Humidity 77    
Precipitation  
Precipitation 0.01 in - - ()
Sea Level Pressure  
Sea Level Pressure 30.27 in    
Wind  
Wind Speed 10 mph (WSW)    
Max Wind Speed 18 mph    
Max Gust Speed 25 mph    
Visibility 7 miles    
Events Snow    
Averages and records for this station are not official NWS values.
T = Trace of Precipitation, MM = Missing Value Source: NWS Daily Summary

Daily Weather History Graph

Daily Weather History Graph

Search for Another Location

Airport or City:

Trip Planner

Search our weather history database for the weather conditions in past years. The results will help you decide how hot, cold, wet, or windy it might be!

Date:

Astronomy

Dec. 30, 2012 Rise Set
Actual Time 8:00 AM EST 5:13 PM EST
Civil Twilight 7:29 AM EST 5:44 PM EST
Nautical Twilight 6:54 AM EST 6:19 PM EST
Astronomical Twilight 6:20 AM EST 6:53 PM EST
Moon 7:45 PM EST (12/30) 9:07 AM EST (12/30)
Length of Visible Light 10h 15m
Length of Day
9h 12m
Waning Gibbous, 95% of the Moon is Illuminated
Dec 30
Waning Gibbous
Jan 4
Last Quarter
Jan 11
New
Jan 18
First Quarter
Jan 26
Full

Hourly Weather History & Observations

Time (EST) Temp. Windchill Dew Point Humidity Pressure Visibility Wind Dir Wind Speed Gust Speed Precip Events Conditions
12:53 AM 21.9 °F 12.5 °F 19.0 °F 89% 30.12 in 7.0 mi West 8.1 mph - N/A   Clear
1:53 AM 23.0 °F 13.1 °F 19.9 °F 88% 30.14 in 6.0 mi West 9.2 mph - N/A   Mostly Cloudy
2:48 AM 24.8 °F 15.3 °F 21.2 °F 86% 30.15 in 6.0 mi West 9.2 mph - N/A   Overcast
2:53 AM 26.1 °F 16.2 °F 21.9 °F 84% 30.17 in 6.0 mi West 10.4 mph - N/A   Overcast
3:23 AM 26.6 °F 17.5 °F 23.0 °F 86% 30.16 in 2.5 mi West 9.2 mph - 0.00 in Snow Light Snow
3:30 AM 26.6 °F 18.2 °F 24.8 °F 93% 30.17 in 3.0 mi West 8.1 mph - 0.00 in Snow Light Snow
3:39 AM 26.6 °F 18.2 °F 24.8 °F 93% 30.17 in 3.0 mi West 8.1 mph - 0.00 in Snow Light Snow
3:46 AM 26.6 °F 18.2 °F 24.8 °F 93% 30.17 in 2.0 mi West 8.1 mph - 0.00 in Snow Light Snow
3:53 AM 27.0 °F 19.5 °F 24.1 °F 89% 30.19 in 2.5 mi West 6.9 mph - 0.00 in Snow Light Snow
4:07 AM 26.6 °F 20.0 °F 24.8 °F 93% 30.17 in 4.0 mi SW 5.8 mph - 0.01 in Snow Light Snow
4:17 AM 26.6 °F 19.1 °F 24.8 °F 93% 30.18 in 4.0 mi WSW 6.9 mph - 0.01 in Snow Light Snow
4:53 AM 28.0 °F 20.0 °F 25.0 °F 88% 30.21 in 5.0 mi WSW 8.1 mph - 0.01 in Snow Light Snow
5:53 AM 28.0 °F 16.5 °F 24.1 °F 85% 30.24 in 7.0 mi WSW 15.0 mph - 0.00 in   Overcast
6:53 AM 28.0 °F 17.5 °F 23.0 °F 81% 30.27 in 8.0 mi WSW 12.7 mph - N/A   Overcast
7:19 AM 26.6 °F 15.2 °F 23.0 °F 86% 30.26 in 8.0 mi WSW 13.8 mph - N/A   Overcast
7:37 AM 26.6 °F 14.7 °F 23.0 °F 86% 30.28 in 8.0 mi WSW 15.0 mph - N/A   Overcast
7:53 AM 26.1 °F 12.7 °F 21.9 °F 84% 30.31 in 9.0 mi West 18.4 mph 25.3 mph N/A   Overcast
8:53 AM 25.0 °F 13.1 °F 21.0 °F 85% 30.34 in 9.0 mi WSW 13.8 mph - N/A   Overcast
9:53 AM 24.1 °F 13.1 °F 19.0 °F 81% 30.36 in 10.0 mi SW 11.5 mph - N/A   Overcast
10:38 AM 24.8 °F 11.9 °F 19.4 °F 80% 30.35 in 10.0 mi SW 16.1 mph - N/A   Overcast
10:53 AM 24.1 °F 12.5 °F 19.0 °F 81% 30.38 in 10.0 mi SW 12.7 mph - N/A   Overcast
11:53 AM 24.1 °F 10.6 °F 19.0 °F 81% 30.37 in 8.0 mi SW 17.3 mph 23.0 mph N/A   Mostly Cloudy
12:53 PM 23.0 °F 11.1 °F 17.1 °F 78% 30.37 in 7.0 mi SW 12.7 mph 23.0 mph N/A   Overcast
1:53 PM 21.9 °F 8.7 °F 17.1 °F 82% 30.35 in 9.0 mi SW 15.0 mph - N/A   Overcast
2:53 PM 21.0 °F 8.1 °F 16.0 °F 81% 30.35 in 8.0 mi SW 13.8 mph - N/A   Overcast
3:42 PM 21.2 °F 8.9 °F 15.8 °F 80% 30.34 in 8.0 mi SW 12.7 mph - N/A   Overcast
3:53 PM 21.0 °F 8.6 °F 15.1 °F 78% 30.36 in 8.0 mi SW 12.7 mph - N/A   Overcast
4:20 PM 19.4 °F 8.6 °F 14.0 °F 80% 30.33 in 8.0 mi SSW 9.2 mph - N/A   Scattered Clouds
4:53 PM 19.0 °F 8.2 °F 12.9 °F 77% 30.35 in 7.0 mi SW 9.2 mph - N/A   Clear
5:53 PM 18.0 °F 9.8 °F 12.0 °F 78% 30.32 in 8.0 mi SSW 5.8 mph - N/A   Clear
6:53 PM 18.0 °F 7.7 °F 12.0 °F 78% 30.33 in 8.0 mi SSW 8.1 mph - N/A   Clear
7:53 PM 18.0 °F 6.1 °F 12.0 °F 78% 30.34 in 8.0 mi SSW 10.4 mph - N/A   Clear
8:53 PM 19.9 °F 7.9 °F 14.0 °F 78% 30.33 in 8.0 mi SW 11.5 mph - N/A   Clear
9:53 PM 19.9 °F 9.3 °F 14.0 °F 78% 30.30 in 8.0 mi SSW 9.2 mph - N/A   Clear
10:53 PM 19.0 °F 10.0 °F 14.0 °F 81% 30.29 in 8.0 mi SSW 6.9 mph - N/A   Clear
11:53 PM 19.0 °F 9.0 °F 14.0 °F 81% 30.27 in 9.0 mi SW 8.1 mph - N/A   Clear